SCP
0 0 0 0 0 0 0 0 0 0 0 0 0 0 0 0 0 0 0 0 0 0 0 0 0 0 0 0 0 0 0 0 0 0 0 0 0 0 0 0 0 0 0
0 0 0 0 0 0 0 0 0 0 0 0 0 0 0 0 0 0 0 0 0 0 0 0 0 0 0 0 0 0 0 0 0 0 0 0 0 0 0 0 0 0 0
0 0 0 0 0 0 0 0 0 0 0 0 0 0 0 0 0 0 0 0 0 0 0 0 0 0 0 0 0 0 0 0 0 0 0 0 0 0 0 0 0 0 0
0 0 0 0 0 0 0 0 0 0 0 0 0 0 0 0 0 0 0 0 0 0 0 0 0 0 0 0 0 0 0 0 0 0 0 0 0 0 0 0 0 0 0
0 0 0 0 0 0 0 0 0 0 0 0 0 0 0 0 0 0 0 0 0 0 0 0 0 0 0 0 0 0 0 0 0 0 0 0 0 0 0 0 0 0 0
0 0 0 0 0 0 0 0 0 0 0 0 0 0 0 0 0 0 0 0 0 0 0 0 0 0 0 0 0 0 0 0 0 0 0 0 0 0 0 0 0 0 -0
0 0 0 0 0 0 0 0 0 0 0 0 0 0 0 0 0 0 0 0 0 0 0 0 0 0 0 0 0 0 0 0 0 0 0 0 0 0 0 0 0 0 0
0 0 0 0 0 0 0 0 0 0 0 0 0 0 0 0 0 0 0 0 0 0 0 0 0 0 0 0 0 0 0 0 0 0 0 0 0 0 0 0 0 0 0
0 0 0 0 0 0 0 0 0 0 0 0 0 0 0 0 0 0 0 0 0 0 0 0 0 0 0 0 0 0 0 0 0 0 0 0 0 0 0 0 0 0 0
0 0 0 0 0 0 0 0 0 0 0 0 0 0 0 0 0 0 0 0 0 0 0 0 0 0 0 0 0 0 0 0 0 0 0 0 0 0 0 0 0 0 0
0 0 0 0 0 0 0 0 0 0 0 0 0 0 0 0 0 0 0 0 0 0 0 0 0 0 0 0 0 0 0 0 0 0 0 0 0 0 0 0 0 0 0
0 0 0 0 0 0 0 0 0 0 0 0 0 0 0 0 0 0 0 0 0 0 0 0 0 0 0 0 0 0 0 0 0 0 0 0 0 0 0 0 0 0 0
0 0 0 0 0 0 0 0 0 0 0 0 0 0 0 0 0 0 0 0 0 0 0 0 0 0 0 0 -0 -0 -0 -0 0 0 0 0 0 0 0 0 0 0 0
0 0 0 0 0 0 0 0 0 0 0 0 0 0 0 0 0 0 0 0 0 0 0 0 0 0 0 -0 -0 -0 -0 -0 0 0 0 0 0 0 0 0 0 0 0
0 0 0 0 0 0 0 0 0 0 0 0 0 0 0 0 0 0 0 0 0 0 0 0 0 0 0 0 0 -0 -0 -0 0 0 0 0 0 0 0 0 0 0 0
0 0 0 0 0 0 0 0 0 0 0 0 0 0 0 0 0 0 0 0 0 0 0 0 0 0 -0 -0 -0 0 0 0 0 0 0 0 0 0 0 0 0 0 0
0 0 0 0 0 0 0 0 0 0 0 0 0 0 0 0 0 0 0 0 0 0 0 0 0 0 0 0 0 0 0 0 0 0 0 0 0 0 0 0 0 0 0
0 0 0 0 0 0 0 0 0 0 0 0 0 0 0 0 0 0 0 0 0 0 0 0 0 0 0 0 0 0 0 0 0 0 0 0 0 0 0 0 0 0 0
0 0 0 0 0 0 0 0 0 0 0 0 0 0 0 0 0 0 0 0 0 0 0 0 0 0 0 0 0 0 0 0 0 0 0 0 0 0 0 0 0 0 0
0 0 0 0 0 0 0 0 0 0 0 0 0 0 0 0 0 0 0 0 0 0 0 0 0 0 0 0 0 0 0 0 0 0 0 0 0 0 0 0 0 0 0
0 0 0 0 0 0 0 0 0 0 0 0 0 0 0 0 0 0 0 0 0 0 0 0 0 0 0 0 0 0 0 0 0 0 0 0 0 0 0 0 0 0 0
0 0 0 0 0 0 0 0 0 0 0 0 0 0 0 0 0 0 0 0 0 0 0 0 0 0 0 0 0 0 0 0 0 0 0 0 0 0 0 0 0 0 0
0 0 0 0 0 0 0 0 0 0 0 0 0 0 0 0 0 0 0 0 0 0 0 0 0 0 0 0 0 0 0 0 0 0 0 0 0 0 0 0 0 0 0
0 0 0 0 0 0 0 0 0 0 0 0 0 0 0 0 0 0 0 0 0 0 0 0 0 0 0 0 0 0 0 0 0 0 0 0 0 0 0 0 0 0 0
0 0 0 0 0 0 0 0 0 0 0 0 0 0 0 0 0 0 0 0 0 0 0 0 0 0 0 0 0 0 0 0 0 0 0 0 0 0 0 0 0 0 0
0 0 0 0 0 0 0 0 0 0 0 0 0 0 0 0 0 0 0 0 0 0 0 0 0 0 0 0 0 0 0 0 0 0 0 0 0 0 0 0 0 0 0
Wind_Speed_500mb
12 9 9 10 11 14 16 19 21 23 25 27 31 35 36 35 38 41 43 46 47 49 52 56 58 60 57 56 57 58 61 65 73 82 76 74 76 76 73 72 71 71 69
9 5 4 4 5 8 9 11 13 16 18 19 22 24 26 29 32 35 37 38 39 40 42 43 44 46 47 49 52 53 55 56 63 75 79 76 75 72 69 64 60 57 57
8 4 1 2 4 6 7 10 12 15 17 18 19 20 21 23 26 28 31 33 35 37 39 41 42 45 47 48 49 50 52 54 56 62 72 72 73 68 64 60 60 59 57
5 4 3 3 5 7 10 12 15 16 17 19 20 21 23 24 27 29 30 32 33 35 39 41 42 42 44 47 49 53 54 54 54 58 65 69 68 65 63 65 71 69 72
4 5 6 7 8 10 12 14 17 18 19 20 22 24 25 27 31 32 31 33 36 35 36 38 39 40 41 42 45 49 50 55 59 61 68 67 70 74 73 67 68 76 78
7 8 8 9 11 12 12 14 15 17 17 20 22 23 25 29 34 37 36 35 35 38 39 38 39 41 43 44 45 46 48 55 63 66 73 71 68 68 71 75 79 79 86
12 14 16 17 18 19 19 19 17 18 20 21 20 20 22 26 33 37 41 38 40 42 43 46 48 49 50 52 54 53 51 49 49 54 64 68 74 70 72 77 73 73 81
17 17 18 20 20 21 21 23 25 25 25 27 27 28 29 32 38 41 48 41 40 42 44 47 49 51 49 51 55 59 61 56 55 56 60 65 67 67 63 67 69 75 83
18 20 20 20 21 23 24 24 25 26 26 27 30 31 32 32 37 42 46 46 44 44 44 47 50 52 53 52 57 64 66 70 69 70 68 67 63 60 62 68 70 70 87
16 15 16 18 20 21 23 23 23 23 23 23 25 27 31 31 33 37 41 43 42 44 48 48 49 50 47 45 51 60 71 73 74 77 77 76 80 81 78 73 66 65 64
17 15 14 14 15 15 16 17 18 20 20 21 22 25 28 30 30 33 36 37 40 46 45 47 49 46 46 46 45 54 57 63 69 72 75 75 73 73 72 62 64 60 62
14 13 13 13 13 13 15 18 20 21 22 23 23 23 25 27 29 30 31 32 35 40 44 49 49 45 46 48 55 56 58 63 70 72 73 73 74 72 74 68 64 62 63
10 10 10 12 12 14 16 17 18 18 20 23 26 26 26 28 30 33 35 36 39 40 45 41 44 50 56 59 61 62 61 62 65 71 76 77 76 76 76 70 58 61 62
7 7 7 6 8 11 14 17 20 22 24 27 31 32 31 33 36 38 43 45 44 47 49 56 51 52 56 61 65 64 63 64 68 73 77 79 78 78 78 73 75 74 79
5 6 7 8 10 13 18 20 21 25 29 32 33 35 38 38 39 38 38 43 46 45 50 50 55 60 64 65 65 67 70 72 75 76 78 78 78 79 79 75 74 74 75
5 7 9 13 15 15 16 15 24 24 26 28 31 34 35 38 39 39 41 42 41 39 46 53 59 63 65 67 72 75 74 77 78 79 79 78 79 78 80 79 73 73 74
7 8 9 12 17 21 23 26 23 15 25 29 32 33 35 38 42 45 46 42 41 47 51 54 58 62 65 69 73 77 80 79 77 76 78 78 79 80 77 77 73 72 76
7 12 15 19 23 24 27 30 34 41 42 35 31 34 35 40 42 42 44 44 46 43 47 51 56 61 67 73 76 81 82 80 79 80 80 81 80 78 76 74 71 70 70
10 14 17 20 23 27 31 34 38 41 44 45 45 44 46 47 49 48 46 48 51 51 51 52 56 61 67 72 78 82 83 83 82 84 83 83 81 78 77 74 72 69 68
11 13 16 20 25 30 35 39 41 43 45 47 48 50 51 53 49 47 49 52 53 55 55 56 57 60 66 73 80 84 85 84 85 87 86 85 84 81 81 78 75 74 73
11 15 18 22 27 31 35 40 45 49 50 50 50 50 53 58 58 58 56 53 54 54 55 56 59 61 66 74 82 84 83 88 89 89 89 90 88 88 84 82 79 77 76
13 17 21 25 30 37 41 44 47 50 54 57 55 53 54 55 56 58 57 53 51 53 53 57 60 63 68 77 83 82 83 89 89 90 96 96 92 90 87 84 82 80 78
17 21 26 31 36 39 42 46 51 55 58 59 59 58 57 58 59 58 60 57 54 54 53 55 59 64 68 76 78 80 85 89 87 91 94 97 94 91 87 86 85 84 83
22 27 31 34 39 45 51 55 58 60 62 60 58 58 60 61 62 60 60 59 56 55 53 54 57 62 70 76 77 79 81 82 83 92 94 92 93 89 88 85 83 83 84
28 31 34 40 45 51 55 59 62 64 63 57 55 57 59 61 63 62 60 59 56 56 54 53 54 61 69 74 75 79 81 75 76 81 85 88 91 93 93 93 90 88 88
33 35 39 43 47 52 57 61 65 65 61 56 55 57 60 62 63 64 62 61 58 56 55 54 54 60 67 75 78 85 85 81 80 82 83 95 105 88 94 88 87 94 89
Wind_Direction_500mb
138 158 184 202 216 228 238 243 249 255 258 260 262 266 266 267 266 266 265 264 263 264 268 269 270 273 274 275 277 279 280 281 282 288 290 290 291 289 289 289 290 291 291
128 145 177 206 237 254 264 266 269 272 275 277 277 275 271 269 268 268 268 268 269 267 268 270 273 274 277 280 281 282 284 284 285 289 293 295 293 294 295 293 290 288 289
114 123 148 255 266 275 282 289 292 292 291 290 288 285 283 281 279 279 279 279 281 283 284 285 287 287 286 285 286 287 289 291 290 291 295 298 299 301 300 298 295 293 291
74 56 25 355 336 325 319 314 308 305 305 303 300 299 296 293 289 286 284 286 290 293 293 294 294 295 296 298 299 297 297 296 296 294 294 297 299 299 299 300 295 294 293
50 15 351 350 347 338 328 319 314 311 308 308 306 304 303 299 292 291 294 297 296 294 295 296 297 297 297 298 299 300 302 303 302 300 297 295 296 299 299 300 296 296 294
354 344 342 330 323 315 311 306 303 304 303 307 308 308 306 303 301 302 303 301 299 297 295 292 291 290 292 292 290 289 292 294 293 293 292 296 297 302 302 300 301 305 304
319 323 323 323 322 321 319 318 314 316 319 313 308 304 302 301 302 305 302 306 306 306 308 306 305 305 306 303 299 296 293 290 287 289 291 293 295 297 300 303 303 299 294
310 313 314 315 316 317 316 314 316 317 317 316 314 313 311 311 312 312 309 313 311 309 308 307 309 310 312 309 307 306 305 299 296 293 292 294 294 296 298 296 296 295 292
307 309 311 314 315 314 315 319 323 323 322 321 319 320 318 323 321 323 321 324 325 322 319 319 318 316 315 319 316 312 308 308 306 302 297 296 294 291 292 296 297 298 295
298 298 300 305 309 313 317 320 324 324 326 327 326 328 327 331 328 325 323 327 328 323 324 325 325 328 332 333 325 316 310 312 311 307 302 298 296 295 294 294 295 293 295
306 311 315 317 321 323 327 330 332 329 329 328 331 334 335 334 334 331 332 336 335 332 333 333 336 340 336 333 328 321 322 318 314 314 311 309 308 306 303 301 294 287 286
309 317 326 336 341 344 344 345 346 345 344 346 352 357 356 353 349 346 346 347 344 339 336 339 342 335 331 330 331 330 326 321 318 316 316 317 315 312 308 305 298 290 282
301 312 326 336 350 358 358 354 351 347 347 351 353 1 1 356 350 344 341 346 342 336 336 333 329 332 330 331 331 330 328 327 324 322 320 318 316 313 310 308 298 287 279
303 314 330 338 2 0 359 353 348 347 348 348 348 350 350 346 341 338 345 339 337 336 339 328 332 328 329 329 330 331 329 327 324 321 318 316 315 315 312 310 307 303 295
297 318 332 341 355 359 352 341 340 340 340 340 339 337 335 336 333 332 328 329 332 330 318 326 329 332 331 333 334 334 331 329 325 322 317 314 314 315 313 312 309 307 302
288 305 325 328 329 334 328 320 325 327 326 326 324 322 321 320 318 320 324 325 324 323 318 326 327 330 331 331 332 330 330 329 327 323 320 317 314 313 312 310 310 308 306
288 311 334 341 349 353 338 334 337 319 317 316 314 314 316 315 315 319 322 322 319 320 320 319 319 324 326 327 328 327 325 326 322 321 317 316 315 313 313 309 308 307 305
336 353 355 355 355 347 343 347 343 342 343 341 328 318 314 312 311 316 319 317 315 308 307 313 319 324 327 329 328 327 325 323 323 320 319 317 314 312 311 309 307 306 305
342 344 345 345 337 336 339 341 339 337 336 334 333 332 326 320 319 319 316 312 313 316 318 319 322 323 325 326 327 327 325 323 321 321 319 318 317 314 310 308 306 305 304
330 330 337 337 335 338 338 337 335 333 332 332 332 327 325 323 320 314 311 312 314 316 315 316 318 319 323 326 327 326 324 323 322 322 320 318 316 313 309 307 306 303 302
308 324 334 334 332 331 331 333 334 332 329 327 328 329 327 325 325 321 315 311 311 312 313 313 316 319 324 326 328 326 324 323 323 322 320 318 314 309 308 305 302 301 299
314 323 324 323 327 332 332 327 324 325 326 327 327 328 325 321 318 319 317 313 310 311 313 313 316 320 325 328 328 326 324 324 325 323 320 317 313 308 305 302 301 298 297
309 313 320 325 322 320 319 322 324 324 323 323 323 323 323 322 321 320 321 318 313 314 315 316 317 321 326 329 329 328 324 325 324 324 319 314 308 302 301 297 297 295 293
303 311 314 315 317 322 324 324 323 322 320 319 318 319 321 322 323 322 322 319 314 314 315 316 318 322 327 330 329 330 327 325 324 324 323 313 310 307 300 297 294 291 290
298 302 309 318 321 321 320 321 322 322 320 318 317 318 320 320 322 321 321 319 314 313 315 316 319 323 329 331 332 333 331 326 325 325 325 316 309 309 304 296 294 290 287
291 302 309 311 314 316 317 320 323 324 321 318 317 318 319 320 322 322 320 320 315 313 315 316 319 324 328 332 334 334 336 333 331 330 324 322 310 302 303 293 298 287 283
Wind_Speed_850mb
12 9 9 10 11 14 16 19 21 23 25 27 31 35 36 35 38 41 43 46 47 49 52 56 58 60 57 56 57 58 61 65 73 82 76 74 76 76 73 72 71 71 69
9 5 4 4 5 8 9 11 13 16 18 19 22 24 26 29 32 35 37 38 39 40 42 43 44 46 47 49 52 53 55 56 63 75 79 76 75 72 69 64 60 57 57
8 4 1 2 4 6 7 10 12 15 17 18 19 20 21 23 26 28 31 33 35 37 39 41 42 45 47 48 49 50 52 54 56 62 72 72 73 68 64 60 60 59 57
5 4 3 3 5 7 10 12 15 16 17 19 20 21 23 24 27 29 30 32 33 35 39 41 42 42 44 47 49 53 54 54 54 58 65 69 68 65 63 65 71 69 72
4 5 6 7 8 10 12 14 17 18 19 20 22 24 25 27 31 32 31 33 36 35 36 38 39 40 41 42 45 49 50 55 59 61 68 67 70 74 73 67 68 76 78
7 8 8 9 11 12 12 14 15 17 17 20 22 23 25 29 34 37 36 35 35 38 39 38 39 41 43 44 45 46 48 55 63 66 73 71 68 68 71 75 79 79 86
12 14 16 17 18 19 19 19 17 18 20 21 20 20 22 26 33 37 41 38 40 42 43 46 48 49 50 52 54 53 51 49 49 54 64 68 74 70 72 77 73 73 81
17 17 18 20 20 21 21 23 25 25 25 27 27 28 29 32 38 41 48 41 40 42 44 47 49 51 49 51 55 59 61 56 55 56 60 65 67 67 63 67 69 75 83
18 20 20 20 21 23 24 24 25 26 26 27 30 31 32 32 37 42 46 46 44 44 44 47 50 52 53 52 57 64 66 70 69 70 68 67 63 60 62 68 70 70 87
16 15 16 18 20 21 23 23 23 23 23 23 25 27 31 31 33 37 41 43 42 44 48 48 49 50 47 45 51 60 71 73 74 77 77 76 80 81 78 73 66 65 64
17 15 14 14 15 15 16 17 18 20 20 21 22 25 28 30 30 33 36 37 40 46 45 47 49 46 46 46 45 54 57 63 69 72 75 75 73 73 72 62 64 60 62
14 13 13 13 13 13 15 18 20 21 22 23 23 23 25 27 29 30 31 32 35 40 44 49 49 45 46 48 55 56 58 63 70 72 73 73 74 72 74 68 64 62 63
10 10 10 12 12 14 16 17 18 18 20 23 26 26 26 28 30 33 35 36 39 40 45 41 44 50 56 59 61 62 61 62 65 71 76 77 76 76 76 70 58 61 62
7 7 7 6 8 11 14 17 20 22 24 27 31 32 31 33 36 38 43 45 44 47 49 56 51 52 56 61 65 64 63 64 68 73 77 79 78 78 78 73 75 74 79
5 6 7 8 10 13 18 20 21 25 29 32 33 35 38 38 39 38 38 43 46 45 50 50 55 60 64 65 65 67 70 72 75 76 78 78 78 79 79 75 74 74 75
5 7 9 13 15 15 16 15 24 24 26 28 31 34 35 38 39 39 41 42 41 39 46 53 59 63 65 67 72 75 74 77 78 79 79 78 79 78 80 79 73 73 74
7 8 9 12 17 21 23 26 23 15 25 29 32 33 35 38 42 45 46 42 41 47 51 54 58 62 65 69 73 77 80 79 77 76 78 78 79 80 77 77 73 72 76
7 12 15 19 23 24 27 30 34 41 42 35 31 34 35 40 42 42 44 44 46 43 47 51 56 61 67 73 76 81 82 80 79 80 80 81 80 78 76 74 71 70 70
10 14 17 20 23 27 31 34 38 41 44 45 45 44 46 47 49 48 46 48 51 51 51 52 56 61 67 72 78 82 83 83 82 84 83 83 81 78 77 74 72 69 68
11 13 16 20 25 30 35 39 41 43 45 47 48 50 51 53 49 47 49 52 53 55 55 56 57 60 66 73 80 84 85 84 85 87 86 85 84 81 81 78 75 74 73
11 15 18 22 27 31 35 40 45 49 50 50 50 50 53 58 58 58 56 53 54 54 55 56 59 61 66 74 82 84 83 88 89 89 89 90 88 88 84 82 79 77 76
13 17 21 25 30 37 41 44 47 50 54 57 55 53 54 55 56 58 57 53 51 53 53 57 60 63 68 77 83 82 83 89 89 90 96 96 92 90 87 84 82 80 78
17 21 26 31 36 39 42 46 51 55 58 59 59 58 57 58 59 58 60 57 54 54 53 55 59 64 68 76 78 80 85 89 87 91 94 97 94 91 87 86 85 84 83
22 27 31 34 39 45 51 55 58 60 62 60 58 58 60 61 62 60 60 59 56 55 53 54 57 62 70 76 77 79 81 82 83 92 94 92 93 89 88 85 83 83 84
28 31 34 40 45 51 55 59 62 64 63 57 55 57 59 61 63 62 60 59 56 56 54 53 54 61 69 74 75 79 81 75 76 81 85 88 91 93 93 93 90 88 88
33 35 39 43 47 52 57 61 65 65 61 56 55 57 60 62 63 64 62 61 58 56 55 54 54 60 67 75 78 85 85 81 80 82 83 95 105 88 94 88 87 94 89
Wind_Direction_850mb
138 158 184 202 216 228 238 243 249 255 258 260 262 266 266 267 266 266 265 264 263 264 268 269 270 273 274 275 277 279 280 281 282 288 290 290 291 289 289 289 290 291 291
128 145 177 206 237 254 264 266 269 272 275 277 277 275 271 269 268 268 268 268 269 267 268 270 273 274 277 280 281 282 284 284 285 289 293 295 293 294 295 293 290 288 289
114 123 148 255 266 275 282 289 292 292 291 290 288 285 283 281 279 279 279 279 281 283 284 285 287 287 286 285 286 287 289 291 290 291 295 298 299 301 300 298 295 293 291
74 56 25 355 336 325 319 314 308 305 305 303 300 299 296 293 289 286 284 286 290 293 293 294 294 295 296 298 299 297 297 296 296 294 294 297 299 299 299 300 295 294 293
50 15 351 350 347 338 328 319 314 311 308 308 306 304 303 299 292 291 294 297 296 294 295 296 297 297 297 298 299 300 302 303 302 300 297 295 296 299 299 300 296 296 294
354 344 342 330 323 315 311 306 303 304 303 307 308 308 306 303 301 302 303 301 299 297 295 292 291 290 292 292 290 289 292 294 293 293 292 296 297 302 302 300 301 305 304
319 323 323 323 322 321 319 318 314 316 319 313 308 304 302 301 302 305 302 306 306 306 308 306 305 305 306 303 299 296 293 290 287 289 291 293 295 297 300 303 303 299 294
310 313 314 315 316 317 316 314 316 317 317 316 314 313 311 311 312 312 309 313 311 309 308 307 309 310 312 309 307 306 305 299 296 293 292 294 294 296 298 296 296 295 292
307 309 311 314 315 314 315 319 323 323 322 321 319 320 318 323 321 323 321 324 325 322 319 319 318 316 315 319 316 312 308 308 306 302 297 296 294 291 292 296 297 298 295
298 298 300 305 309 313 317 320 324 324 326 327 326 328 327 331 328 325 323 327 328 323 324 325 325 328 332 333 325 316 310 312 311 307 302 298 296 295 294 294 295 293 295
306 311 315 317 321 323 327 330 332 329 329 328 331 334 335 334 334 331 332 336 335 332 333 333 336 340 336 333 328 321 322 318 314 314 311 309 308 306 303 301 294 287 286
309 317 326 336 341 344 344 345 346 345 344 346 352 357 356 353 349 346 346 347 344 339 336 339 342 335 331 330 331 330 326 321 318 316 316 317 315 312 308 305 298 290 282
301 312 326 336 350 358 358 354 351 347 347 351 353 1 1 356 350 344 341 346 342 336 336 333 329 332 330 331 331 330 328 327 324 322 320 318 316 313 310 308 298 287 279
303 314 330 338 2 0 359 353 348 347 348 348 348 350 350 346 341 338 345 339 337 336 339 328 332 328 329 329 330 331 329 327 324 321 318 316 315 315 312 310 307 303 295
297 318 332 341 355 359 352 341 340 340 340 340 339 337 335 336 333 332 328 329 332 330 318 326 329 332 331 333 334 334 331 329 325 322 317 314 314 315 313 312 309 307 302
288 305 325 328 329 334 328 320 325 327 326 326 324 322 321 320 318 320 324 325 324 323 318 326 327 330 331 331 332 330 330 329 327 323 320 317 314 313 312 310 310 308 306
288 311 334 341 349 353 338 334 337 319 317 316 314 314 316 315 315 319 322 322 319 320 320 319 319 324 326 327 328 327 325 326 322 321 317 316 315 313 313 309 308 307 305
336 353 355 355 355 347 343 347 343 342 343 341 328 318 314 312 311 316 319 317 315 308 307 313 319 324 327 329 328 327 325 323 323 320 319 317 314 312 311 309 307 306 305
342 344 345 345 337 336 339 341 339 337 336 334 333 332 326 320 319 319 316 312 313 316 318 319 322 323 325 326 327 327 325 323 321 321 319 318 317 314 310 308 306 305 304
330 330 337 337 335 338 338 337 335 333 332 332 332 327 325 323 320 314 311 312 314 316 315 316 318 319 323 326 327 326 324 323 322 322 320 318 316 313 309 307 306 303 302
308 324 334 334 332 331 331 333 334 332 329 327 328 329 327 325 325 321 315 311 311 312 313 313 316 319 324 326 328 326 324 323 323 322 320 318 314 309 308 305 302 301 299
314 323 324 323 327 332 332 327 324 325 326 327 327 328 325 321 318 319 317 313 310 311 313 313 316 320 325 328 328 326 324 324 325 323 320 317 313 308 305 302 301 298 297
309 313 320 325 322 320 319 322 324 324 323 323 323 323 323 322 321 320 321 318 313 314 315 316 317 321 326 329 329 328 324 325 324 324 319 314 308 302 301 297 297 295 293
303 311 314 315 317 322 324 324 323 322 320 319 318 319 321 322 323 322 322 319 314 314 315 316 318 322 327 330 329 330 327 325 324 324 323 313 310 307 300 297 294 291 290
298 302 309 318 321 321 320 321 322 322 320 318 317 318 320 320 322 321 321 319 314 313 315 316 319 323 329 331 332 333 331 326 325 325 325 316 309 309 304 296 294 290 287
291 302 309 311 314 316 317 320 323 324 321 318 317 318 319 320 322 322 320 320 315 313 315 316 319 324 328 332 334 334 336 333 331 330 324 322 310 302 303 293 298 287 283